Weather History for Meacham, OR

Change the Weather History Date:

Monday, October 8, 2012

  Actual Average Record
Temperature  
Mean Temperature 44 °F -  
Max Temperature 68 °F 58 °F 75 °F (1996)
Min Temperature 19 °F 28 °F 19 °F (2012)
Degree Days  
Heating Degree Days 22    
Moisture  
Dew Point 16 °F    
Average Humidity 45    
Maximum Humidity 78    
Minimum Humidity 13    
Precipitation  
Precipitation 0.00 in - - ()
Sea Level Pressure  
Sea Level Pressure 30.02 in    
Wind  
Wind Speed 1 mph (NE)    
Max Wind Speed 6 mph    
Max Gust Speed -    
Visibility 10 miles    
Events      
Averages and records for this station are not official NWS values.
T = Trace of Precipitation, MM = Missing Value Source: NWS Daily Summary

Daily Weather History Graph

Daily Weather History Graph

Search for Another Location

Airport:

Trip Planner

Search our weather history database for the weather conditions in past years. The results will help you decide how hot, cold, wet, or windy it might be!

Date:

Astronomy

Oct. 08, 2012 Rise Set
Actual Time 7:01 AM PDT 6:19 PM PDT
Civil Twilight 6:31 AM PDT 6:49 PM PDT
Nautical Twilight 5:57 AM PDT 7:23 PM PDT
Astronomical Twilight 5:23 AM PDT 7:57 PM PDT
Moon No Moon Rise 2:30 PM PDT (10/8)
Length of Visible Light 12h 17m
Length of Day
11h 18m
Last Quarter, 45% of the Moon is Illuminated
Oct 8
Last Quarter
Oct 15
New
Oct 21
First Quarter
Oct 29
Full
Nov 6
Last Quarter

Hourly Weather History & Observations

Time (PDT) Temp. Dew Point Humidity Pressure Visibility Wind Dir Wind Speed Gust Speed Precip Events Conditions
12:56 AM 27.0 °F 16.0 °F 63% 30.03 in 10.0 mi Calm Calm - N/A   Clear
1:56 AM 26.1 °F 16.0 °F 66% 30.02 in 10.0 mi Calm Calm - N/A   Clear
2:56 AM 25.0 °F 16.0 °F 69% 30.01 in 10.0 mi Calm Calm - N/A   Clear
3:56 AM 23.0 °F 15.1 °F 72% 30.01 in 10.0 mi Calm Calm - N/A   Clear
4:56 AM 21.9 °F 15.1 °F 75% 30.03 in 10.0 mi Calm Calm - N/A   Clear
5:56 AM 21.0 °F 12.9 °F 71% 30.05 in 10.0 mi Calm Calm - N/A   Clear
6:56 AM 19.9 °F 14.0 °F 78% 30.07 in 10.0 mi Calm Calm - N/A   Clear
7:56 AM 21.9 °F 14.0 °F 72% 30.08 in 10.0 mi Calm Calm - N/A   Clear
8:56 AM 30.9 °F 17.1 °F 57% 30.06 in 10.0 mi Calm Calm - N/A   Clear
9:56 AM 52.0 °F 21.0 °F 30% 30.01 in 10.0 mi Calm Calm - N/A   Clear
10:56 AM 62.1 °F 19.9 °F 20% 29.99 in 10.0 mi East 3.5 mph - N/A   Clear
11:56 AM 64.9 °F 15.1 °F 15% 30.00 in 10.0 mi Variable 3.5 mph - N/A   Clear
12:56 PM 66.9 °F 14.0 °F 13% 29.98 in 10.0 mi Variable 4.6 mph - N/A   Clear
1:56 PM 68.0 °F 15.1 °F 13% 29.96 in 10.0 mi Variable 4.6 mph - N/A   Clear
2:56 PM 64.9 °F 16.0 °F 15% 29.97 in 10.0 mi Variable 3.5 mph - N/A   Clear
3:56 PM 63.0 °F 18.0 °F 18% 29.99 in 10.0 mi North 5.8 mph - N/A   Clear
4:56 PM 61.0 °F 16.0 °F 17% 30.00 in 10.0 mi Calm Calm - N/A   Clear
5:56 PM 55.0 °F 17.1 °F 23% 30.01 in 10.0 mi Calm Calm - N/A   Clear
6:56 PM 46.0 °F 18.0 °F 33% 30.04 in 10.0 mi Calm Calm - N/A   Clear
7:56 PM 39.9 °F 19.0 °F 43% 30.06 in 10.0 mi Calm Calm - N/A   Clear
8:56 PM 36.0 °F 19.0 °F 50% 30.06 in 10.0 mi Calm Calm - N/A   Clear
9:56 PM 32.0 °F 17.1 °F 54% 30.04 in 10.0 mi Calm Calm - N/A   Clear
10:56 PM 28.9 °F 16.0 °F 58% 30.03 in 10.0 mi Calm Calm - N/A   Clear
11:56 PM 28.0 °F 16.0 °F 61% 30.04 in 10.0 mi Calm Calm - N/A   Clear